Tracking 29494 objects as of 8-Sep-2024
HD Live streaming from Space Station
objects crossing your sky now

FENGYUN 1C DEB

Track FENGYUN 1C DEB now!
10-day predictions


NORAD ID: 30809
Int'l Code: 1999-025AUT
Perigee: 783.2 km
Apogee: 864.1 km
Inclination: 98.8 °
Period: 101.2 minutes
Semi major axis: 7194 km
RCS: 0.0182 m2 (small)
Launch date: May 10, 1999
Source: People's Republic of China (PRC)
Launch site: Taiyaun Space Center, China (TSC)

Note: This is SATELLITE DEBRIS
Your satellite tracking list
Your tracking list is empty




NASA's NSSDC Master Catalog

Two Line Element Set (TLE):
1 30809U 99025AUT 24251.91867154  .00015289  00000-0  67338-2 0  9994
2 30809  98.8049 332.8808 0056188  71.3877 289.3391 14.22623094905173
Source of the keplerian elements: AFSPC